Regional Weather Roundup
Issued by NWS Sioux Falls, SD

Home | Current Version | Previous Version | Text Only | Print | Product List | Glossary Off
Versions: 1 2 3 4 5 6 7 8 9 10 11 12 13 14 15 16 17 18 19 20 21 22 23 24 25 26 27 28 29 30 31 32 33 34 35 36 37 38 39 40 41 42 43 44 45 46 47 48 49 50

000
ASUS43 KFSD 271210
RWRFSD

WEATHER ROUNDUP FOR SE SOUTH DAKOTA/SW MINNESOTA/NW IOWA
NATIONAL WEATHER SERVICE SIOUX FALLS SD
600 AM CST THU NOV 27 2014

NOTE: "FAIR" INDICATES FEW OR NO CLOUDS BELOW 12,000 FEET WITH NO
SIGNIFICANT WEATHER AND OR OBSTRUCTIONS TO VISIBILITY.


SDZ038>040-050-052>070-271300-
SOUTHEAST SOUTH DAKOTA

CITY           SKY/WX    TMP DP  RH WIND       PRES   REMARKS
CHAMBERLAIN    CLOUDY    10   3  75 E9        30.40F WCI  -3
6HR MIN TEMP:  10; 6HR MAX TEMP:  12;

HURON          PTCLDY    -6 -10  83 E3        30.50F
6HR MIN TEMP:  -6; 6HR MAX TEMP:   0;

MADISON        FAIR      -8 -11  84 N5        30.45S WCI -19
MITCHELL       PTCLDY     1  -5  75 NE5       30.51F WCI  -9
6HR MIN TEMP:   1; 6HR MAX TEMP:   9;

SIOUX FALLS    PTCLDY    -4  -9  79 N3        30.48F
6HR MIN TEMP:  -6; 6HR MAX TEMP:   3;

WINNER         CLOUDY    16   8  71 SE14      30.36S WCI   2
YANKTON        CLOUDY    10   3  72 NE7       30.50S WCI   0
$$

MNZ071-072-080-081-089-090-097-098-271300-
SOUTHWEST MINNESOTA

CITY           SKY/WX    TMP DP  RH WIND       PRES   REMARKS
FAIRMONT       PTCLDY    -6 -11  77 NW12      30.47R WCI -24
JACKSON        PTCLDY    -8 -13  77 NW6       30.47R WCI -21
LUVERNE        PTCLDY    -4  -9  77 N3        30.49F
MARSHALL       PTCLDY    -9 -17  70 NW8       30.50F WCI -26
6HR MIN TEMP: -11; 6HR MAX TEMP:   0;

MONTEVIDEO     PTCLDY    -8 -11  84 NW7       30.54S WCI -22
PIPESTONE      PTCLDY    -4 -11  71 NE5       30.44F WCI -15
REDWOOD FALLS  PTCLDY    -9 -14  78 NW9       30.53R WCI -26
TRACY          PTCLDY    -7 -11  81 NW9       30.50S WCI -24
WINDOM         FLURRIES  -8 -11  84 NW7       30.48R WCI -22
WORTHINGTON    PTCLDY    -9 -13  84 N7        30.46F WCI -24
$$

IAZ001>003-012>014-020>022-031-032-NEZ013-014-SDZ071-271300-
NORTHWEST IOWA

CITY           SKY/WX    TMP DP  RH WIND       PRES   REMARKS
CHEROKEE       MOCLDY    -3  -9  77 CALM      30.52R
DENISON        MOCLDY     5  -6  61 N9        30.48S WCI  -9
ESTHERVILLE    PTCLDY    -9 -13  83 NW13      30.48R WCI -29
LE MARS        PTCLDY     1  -6  71 CALM      30.53R
ORANGE CITY    PTCLDY     0  -8  71 CALM      30.48R
SHELDON        PTCLDY    -8 -13  77 NW5       30.48R WCI -19
SIOUX CITY     CLOUDY    10  -5  50 N9        30.51S WCI  -3
6HR MIN TEMP:  10; 6HR MAX TEMP:  16;

SPENCER        PTCLDY   N/A N/A N/A N9        30.49S
STORM LAKE     MOCLDY    -4 -13  65 NW10      30.48S WCI -21
$$

ABBREVIATIONS USED IN REMARKS
   TC - TEMPERATURE IN CELSIUS
  WCI - WIND CHILL INDEX
   HX - HEAT INDEX
  VSB - VISIBILITY




USA.gov is the U.S. government's official web portal to all federal, state and local government web resources and services.